DELTA 1 DEB

Satellite information

Favourite Embed

Satellite Type and Status

DEBRISIN ORBIT

Key statistics

Satellite DELTA 1 DEB at a glance.

Uptime

17401

Days in orbit

Revolutions

≈ 14.1

Per day

Orbit

SSO

Sun Synchronous Orbit

Inclination

99.1

Latest

Satellite identification and parameters

Extended collection of information and parameters for DELTA 1 DEB.

Object identification

Identified? True

Debris? True

Object name: DELTA 1 DEB

International designator: 1978-026P

Object number (NORAD): 12174

Object ID (CCSDS): 12174

Country: UNITED STATES OF AMERICA (US)

Current information (Y/N): Y

RCS size: LARGE

Orbital parameters

Period: 102.106 minutes

Inclination: 99.0554 deg

SMA: 7236.508 km

Apoapsis: 887.978 km

Periapsis: 828.767 km

RAAN: 326.459 deg

Eccentricy: 0.00409119

Argument of periapsis: 277.05 deg

Mean anomaly: 145.8262 deg

Mean motion: 14.1029262 rev/day

Mean motion (dot): 0.00000235 rev/day2

B* drag term: 0.00015739205 1/REarth

Two-line elements (TLE)

Creation date: Oct. 25, 2025, 3:11 a.m.

Reference frame: TEME

Reference center: EARTH

Epoch: Oct. 24, 2025, 11:11 p.m. UTC

TLE line 0: 0 DELTA 1 DEB

TLE line 1: 1 12174U 78026P 25297.96624957 .00000235 00000-0 15739-3 0 9999

TLE line 2: 2 12174 99.0554 326.4590 0040912 277.0500 145.8262 14.10292620298582

Live tracking on map

Real-time ground track for satellite DELTA 1 DEB.

In-orbit conjunctions

A list of the most updated potential collisions computed for object DELTA 1 DEB.

Target Orbit TCA Probability of collision Miss distance Type
CZ-6A DEB LEO 2025-03-03 16:55:43 0.000541579 492.0 (m) DEBRIS
METEOR 2-8 DEB LEO 2024-08-01 23:33:15 0.0001821743 55.0 (m) DEBRIS

Associated space launch

Earth observation satellite

DELTA 1 DEB was lifted into orbit during the mission ‘Delta 2910 | Landsat 3’, on board a Delta 2910 space rocket.

The launch took place on March 5, 1978, 5:54 p.m. from Space Launch Complex 2W.

For more information about the launch, click the button.

Launch to space Delta 2910 | Landsat 3
Delta 2910 | Landsat 3

Agency: N/A

Status: Launch Successful

Launch date: March 5, 1978, 5:54 p.m. UTC

Rocket: Delta 2910

Launch pad: Space Launch Complex 2W

Location: Vandenberg SFB, CA, USA

...

Latest news about this satellite

There are no fresh news available about this satellite. Check back as we update our databases every day.


Newsletter sign-up

Weekly statistics, charts and insights to help you stay on top of the space industry.